Santa Ana, CA

3:03 AM PDT on June 23, 2017 (GMT -0700)
John Wayne-Orange County

Weather History for KSNA - May, 2012

Change the Weather History Date:

Monday, May 7, 2012

  Actual Average Record
Temperature  
Mean Temperature 65 °F 64 °F  
Max Temperature 71 °F 71 °F 93 °F (2007)
Min Temperature 58 °F 57 °F 51 °F (2017)
Degree Days  
Heating Degree Days 0 2  
Month to date heating degree days 12 15  
Since 1 July heating degree days 1096 1222  
Cooling Degree Days 0 1  
Month to date cooling degree days 0 7  
Year to date cooling degree days 32 36  
Growing Degree Days 14 (Base 50)    
Moisture  
Dew Point 54 °F    
Average Humidity 70    
Maximum Humidity 86    
Minimum Humidity 53    
Precipitation  
Precipitation 0.00 in 0.02 in 0.39 in (2015)
Month to date precipitation 0.01 0.12  
Year to date precipitation 3.87 8.77  
Since 1 July precipitation 6.32  
Snow  
Snow 0.00 in - - ()
Month to date snowfall 0.0  
Year to date snowfall 0.0  
Snow Depth 0.00 in    
Sea Level Pressure  
Sea Level Pressure 29.95 in    
Wind  
Wind Speed 4 mph (SSW)    
Max Wind Speed 12 mph    
Max Gust Speed 15 mph    
Visibility 8 miles    
Events      
T = Trace of Precipitation, MM = Missing Value Source: NWS Daily Summary

Daily Weather History Graph

Daily Weather History Graph

Search for Another Location

Airport or City:

Trip Planner

Search our weather history database for the weather conditions in past years. The results will help you decide how hot, cold, wet, or windy it might be!

Date:

Astronomy

May. 07, 2012 Rise Set
Actual Time 5:56 AM PDT 7:39 PM PDT
Civil Twilight 5:29 AM PDT 8:06 PM PDT
Nautical Twilight 4:57 AM PDT 8:39 PM PDT
Astronomical Twilight 4:22 AM PDT 9:13 PM PDT
Moon 9:52 PM PDT (5/7) 7:11 AM PDT (5/7)
Length of Visible Light 14h 37m
Length of Day
13h 43m
Waning Gibbous, 96% of the Moon is Illuminated
May 7
Waning Gibbous
May 12
Last Quarter
May 20
New
May 28
First Quarter
Jun 4
Full

Hourly Weather History & Observations

Time (PDT) Temp. Dew Point Humidity Pressure Visibility Wind Dir Wind Speed Gust Speed Precip Events Conditions
12:53 AM 57.9 °F 53.1 °F 84% 29.98 in 9.0 mi Calm Calm - N/A   Clear
1:24 AM 57.2 °F 53.6 °F 88% 29.97 in 8.0 mi Calm Calm - N/A   Mostly Cloudy
1:53 AM 57.9 °F 53.1 °F 84% 29.97 in 8.0 mi ESE 3.5 mph - N/A   Overcast
2:53 AM 59.0 °F 53.1 °F 81% 29.97 in 9.0 mi Calm Calm - N/A   Overcast
3:53 AM 59.0 °F 53.1 °F 81% 29.96 in 9.0 mi Variable 3.5 mph - N/A   Overcast
4:53 AM 60.1 °F 53.1 °F 78% 29.96 in 9.0 mi Calm Calm - N/A   Overcast
5:53 AM 59.0 °F 53.1 °F 81% 29.96 in 8.0 mi Calm Calm - N/A   Overcast
6:53 AM 60.1 °F 53.1 °F 78% 29.98 in 6.0 mi Calm Calm - N/A   Haze
7:53 AM 60.1 °F 53.1 °F 78% 29.99 in 6.0 mi Calm Calm - N/A   Haze
8:46 AM 60.8 °F 53.6 °F 77% 29.98 in 6.0 mi Variable 3.5 mph - N/A   Haze
8:53 AM 62.1 °F 53.1 °F 72% 29.99 in 6.0 mi ESE 3.5 mph - N/A   Haze
9:53 AM 64.0 °F 54.0 °F 70% 29.98 in 6.0 mi SW 3.5 mph - N/A   Haze
10:00 AM 64.4 °F 53.6 °F 68% 29.98 in 6.0 mi South 4.6 mph - N/A   Haze
10:53 AM 68.0 °F 54.0 °F 61% 29.98 in 8.0 mi SW 5.8 mph - N/A   Scattered Clouds
11:53 AM 69.1 °F 54.0 °F 58% 29.97 in 10.0 mi SW 6.9 mph - N/A   Partly Cloudy
12:53 PM 70.0 °F 54.0 °F 57% 29.95 in 10.0 mi South 10.4 mph - N/A   Partly Cloudy
1:53 PM 71.1 °F 54.0 °F 55% 29.94 in 10.0 mi WSW 8.1 mph - N/A   Partly Cloudy
2:53 PM 70.0 °F 55.0 °F 59% 29.93 in 10.0 mi WSW 8.1 mph - N/A   Partly Cloudy
3:53 PM 70.0 °F 55.9 °F 61% 29.91 in 10.0 mi SSW 9.2 mph - N/A   Partly Cloudy
4:53 PM 68.0 °F 55.9 °F 65% 29.91 in 10.0 mi SW 9.2 mph - N/A   Partly Cloudy
5:53 PM 70.0 °F 55.0 °F 59% 29.89 in 10.0 mi SSW 6.9 mph - N/A   Partly Cloudy
6:53 PM 66.0 °F 57.0 °F 73% 29.89 in 10.0 mi SSW 10.4 mph - N/A   Partly Cloudy
7:53 PM 62.1 °F 55.9 °F 80% 29.90 in 8.0 mi SSW 8.1 mph - N/A   Scattered Clouds
8:53 PM 62.1 °F 55.9 °F 80% 29.91 in 5.0 mi SW 5.8 mph - N/A   Scattered Clouds
9:13 PM 60.8 °F 55.4 °F 82% 29.92 in 5.0 mi SSW 5.8 mph - N/A   Scattered Clouds
9:48 PM 60.8 °F 55.4 °F 82% 29.93 in 5.0 mi SW 6.9 mph - N/A   Mostly Cloudy
9:53 PM 61.0 °F 55.9 °F 83% 29.93 in 5.0 mi SSW 6.9 mph - N/A   Mostly Cloudy
10:53 PM 61.0 °F 55.9 °F 83% 29.93 in 5.0 mi SW 6.9 mph - N/A   Mostly Cloudy
11:20 PM 60.8 °F 55.4 °F 82% 29.93 in 9.0 mi SSW 5.8 mph - N/A   Mostly Cloudy
11:53 PM 61.0 °F 55.9 °F 83% 29.93 in 8.0 mi South 3.5 mph - N/A   Overcast